EW4504 Weather Reports


Display with metric or nautical units.
time (UTC)temp
F
wind
direction
speed
MPH
gust
MPH
rain 1hr
in
rain 24hr
in
rain mn
in
humidity
%
barometer
mb
20260509224541 72 194 0.0 3.0 0.00 0.00 0.00 68 1011.7
20260509224033 72 193 1.0 3.0 0.00 0.00 0.00 68 1011.8
20260509223530 72 0 1.0 5.0 0.00 0.00 0.00 68 1011.8
20260509223044 72 0 2.0 5.0 0.00 0.00 0.00 67 1011.8
20260509222529 73 202 2.0 5.0 0.00 0.00 0.00 67 1011.8
20260509222029 73 0 1.0 5.0 0.00 0.00 0.00 66 1011.8
20260509221538 73 200 1.0 5.0 0.00 0.00 0.00 66 1011.6
20260509221031 73 206 2.0 5.0 0.00 0.00 0.00 67 1011.6
20260509220531 73 219 3.0 5.0 0.00 0.00 0.00 67 1011.5
20260509220041 73 189 0.0 4.0 0.00 0.00 0.00 66 1011.5
20260509215532 73 189 2.0 4.0 0.00 0.00 0.00 66 1011.4
20260509215033 73 0 2.0 6.0 0.00 0.00 0.00 66 1011.6
20260509214540 73 206 3.0 6.0 0.00 0.00 0.00 66 1011.6
20260509214033 73 200 2.0 6.0 0.00 0.00 0.00 66 1011.6
20260509213529 73 296 2.0 5.0 0.00 0.00 0.00 65 1011.6
20260509213042 73 200 2.0 6.0 0.00 0.00 0.00 65 1011.5
20260509212531 73 192 3.0 6.0 0.00 0.00 0.00 66 1011.4
20260509212032 73 203 2.0 5.0 0.00 0.00 0.00 66 1011.2
20260509211545 73 0 1.0 4.0 0.00 0.00 0.00 65 1011.1
20260509211032 73 207 0.0 10.0 0.00 0.00 0.00 65 1011.1
20260509210530 74 207 2.0 10.0 0.00 0.00 0.00 65 1011.1
20260509210047 74 220 1.0 8.0 0.00 0.00 0.00 64 1011.3
20260509205530 74 244 2.0 8.0 0.00 0.00 0.00 65 1011.3
20260509205031 74 250 1.0 5.0 0.00 0.00 0.00 65 1011.3
20260509204546 74 251 1.0 7.0 0.00 0.00 0.00 65 1011.3
20260509204032 73 193 2.0 7.0 0.00 0.00 0.00 65 1011.4
20260509203528 73 203 4.0 8.0 0.00 0.00 0.00 66 1011.4
20260509203040 73 242 1.0 8.0 0.00 0.00 0.00 66 1011.3
20260509202531 74 211 4.0 8.0 0.00 0.00 0.00 66 1011.1
20260509202032 74 224 1.0 7.0 0.00 0.00 0.00 66 1011.4
20260509201540 73 196 4.0 7.0 0.00 0.00 0.00 66 1011.6
20260509201031 73 0 2.0 10.0 0.00 0.00 0.00 66 1011.5
20260509200531 73 202 2.0 10.0 0.00 0.00 0.00 67 1011.5
20260509200044 73 186 3.0 9.0 0.00 0.00 0.00 68 1011.6
20260509195533 72 204 2.0 8.0 0.00 0.00 0.00 67 1011.5
20260509195031 72 132 3.0 8.0 0.00 0.00 0.00 66 1011.5
20260509194543 72 249 1.0 6.0 0.00 0.00 0.00 66 1011.5
20260509194034 72 262 1.0 6.0 0.00 0.00 0.00 67 1011.7
20260509193530 72 281 3.0 6.0 0.00 0.00 0.00 66 1011.6
20260509193041 72 232 1.0 7.0 0.00 0.00 0.00 67 1011.7
20260509192531 73 257 2.0 7.0 0.00 0.00 0.00 67 1011.7
20260509192032 72 290 1.0 5.0 0.00 0.00 0.00 69 1011.8
20260509191542 72 217 2.0 9.0 0.00 0.00 0.00 70 1011.9
20260509191033 71 275 2.0 9.0 0.00 0.00 0.00 69 1012.0
20260509190531 71 355 4.0 8.0 0.00 0.00 0.00 69 1012.0
20260509190047 71 223 1.0 5.0 0.00 0.00 0.00 70 1012.1
20260509185532 70 300 1.0 5.0 0.00 0.00 0.00 72 1012.1
20260509185031 70 305 1.0 5.0 0.00 0.00 0.00 72 1012.2
20260509184622 69 0 0.0 6.0 0.00 0.00 0.00 73 1012.0
20260509184030 69 204 3.0 7.0 0.00 0.00 0.00 73 1012.2
20260509183530 70 229 1.0 7.0 0.00 0.00 0.00 73 1012.1
20260509183042 70 232 1.0 5.0 0.00 0.00 0.00 72 1012.2
20260509182530 70 0 1.0 6.0 0.00 0.00 0.00 72 1012.2
20260509182031 70 255 3.0 8.0 0.00 0.00 0.00 73 1012.4
20260509181546 70 313 3.0 8.0 0.00 0.00 0.00 73 1012.4
20260509181030 70 209 3.0 7.0 0.00 0.00 0.00 74 1012.5
20260509180534 70 0 0.0 6.0 0.00 0.00 0.00 74 1012.4
20260509180041 69 331 3.0 7.0 0.00 0.00 0.00 74 1012.4
20260509175534 69 331 1.0 7.0 0.00 0.00 0.00 75 1012.3
20260509175031 69 315 3.0 8.0 0.00 0.00 0.00 74 1012.2
20260509174540 69 309 4.0 8.0 0.00 0.00 0.00 76 1012.1
20260509174035 68 199 1.0 9.0 0.00 0.00 0.00 77 1012.1
20260509173536 68 273 3.0 9.0 0.00 0.00 0.00 80 1012.4
20260509173046 67 225 2.0 8.0 0.00 0.00 0.00 80 1012.5
20260509172530 66 273 3.0 7.0 0.00 0.00 0.00 80 1012.7
20260509172031 66 289 2.0 6.0 0.00 0.00 0.00 81 1012.8
20260509171544 66 225 2.0 7.0 0.00 0.00 0.00 82 1012.8
20260509171031 66 212 3.0 8.0 0.00 0.00 0.00 83 1012.6
20260509170530 66 193 3.0 12.0 0.00 0.00 0.00 83 1012.8
20260509170044 66 187 4.0 12.0 0.00 0.00 0.00 84 1012.9
20260509165531 65 225 3.0 9.0 0.00 0.00 0.00 86 1012.9
20260509165031 65 323 3.0 9.0 0.00 0.00 0.00 86 1013.0
20260509164540 65 295 1.0 6.0 0.00 0.00 0.00 88 1012.8
20260509164031 64 311 2.0 6.0 0.00 0.00 0.00 88 1012.9
20260509163532 64 311 1.0 5.0 0.00 0.00 0.00 89 1012.8
20260509163105 64 0 2.0 5.0 0.00 0.00 0.00 90 1012.9
20260509162530 63 0 0.0 4.0 0.00 0.00 0.00 90 1013.1
20260509162034 63 271 1.0 4.0 0.00 0.00 0.00 91 1013.0
20260509161545 63 0 1.0 4.0 0.00 0.00 0.00 91 1012.9
20260509161030 63 258 1.0 4.0 0.00 0.00 0.00 91 1013.0
20260509160531 63 263 0.0 4.0 0.00 0.00 0.00 91 1013.0
20260509160047 63 0 0.0 4.0 0.00 0.00 0.00 91 1013.0
20260509155530 63 0 1.0 6.0 0.00 0.00 0.00 91 1013.1
20260509155032 63 230 1.0 6.0 0.00 0.00 0.00 91 1013.0
20260509154545 63 275 2.0 4.0 0.00 0.00 0.00 91 1013.0
20260509154032 63 236 1.0 5.0 0.00 0.00 0.00 92 1013.1
20260509153529 63 234 1.0 5.0 0.00 0.00 0.00 91 1013.0
20260509153041 63 215 1.0 4.0 0.00 0.00 0.00 91 1012.9
20260509152530 63 236 1.0 4.0 0.00 0.00 0.00 91 1012.9
20260509152033 63 239 2.0 6.0 0.00 0.00 0.00 92 1013.1
20260509151539 62 242 1.0 6.0 0.00 0.00 0.00 91 1013.2
20260509151029 62 217 2.0 6.0 0.00 0.00 0.00 91 1013.3
20260509150531 62 213 2.0 4.0 0.00 0.00 0.00 91 1013.4
20260509150041 62 209 3.0 6.0 0.00 0.00 0.00 91 1013.3
20260509145531 62 196 2.0 6.0 0.00 0.00 0.00 90 1013.3
20260509145031 62 236 2.0 6.0 0.00 0.00 0.00 90 1013.2
20260509144545 63 204 2.0 6.0 0.00 0.00 0.00 90 1013.5
20260509144031 63 217 2.0 6.0 0.00 0.00 0.00 90 1013.3
20260509143530 63 215 3.0 6.0 0.00 0.00 0.00 90 1013.3
20260509143049 63 210 3.0 6.0 0.00 0.00 0.00 89 1013.3
20260509142530 63 219 2.0 5.0 0.00 0.00 0.00 89 1013.2
20260509142032 63 202 2.0 6.0 0.00 0.00 0.00 89 1013.1
20260509141548 63 225 2.0 6.0 0.00 0.00 0.00 88 1013.1
20260509141032 62 236 3.0 8.0 0.00 0.00 0.00 88 1012.8
20260509140530 62 206 3.0 8.0 0.00 0.00 0.00 88 1012.8
20260509140048 62 187 2.0 6.0 0.00 0.00 0.00 88 1012.7
20260509135529 62 245 2.0 7.0 0.00 0.00 0.00 88 1012.7
20260509135034 62 234 3.0 7.0 0.00 0.00 0.00 88 1012.6
20260509134537 62 267 1.0 6.0 0.00 0.00 0.00 88 1012.5
20260509134031 62 0 0.0 4.0 0.00 0.00 0.00 88 1012.4
20260509133532 62 0 2.0 4.0 0.00 0.00 0.00 88 1012.4
20260509133037 62 0 1.0 3.0 0.00 0.00 0.00 88 1012.4
20260509132532 62 130 0.0 3.0 0.00 0.00 0.00 88 1012.3
20260509132030 62 129 0.0 2.0 0.00 0.00 0.00 88 1012.2
20260509131543 62 0 0.0 2.0 0.00 0.00 0.00 88 1012.1
20260509131032 62 0 0.0 2.0 0.00 0.00 0.00 88 1012.1
20260509130529 62 0 0.0 2.0 0.00 0.00 0.00 88 1012.1
20260509130044 62 80 1.0 2.0 0.00 0.00 0.00 88 1012.1
20260509125529 62 0 0.0 3.0 0.00 0.00 0.00 88 1012.1
20260509125030 61 0 0.0 3.0 0.00 0.00 0.00 88 1012.2
20260509124540 61 0 0.0 3.0 0.00 0.00 0.00 88 1012.0
20260509124031 61 0 0.0 3.0 0.00 0.00 0.00 88 1011.9
20260509123531 61 0 1.0 3.0 0.00 0.00 0.00 88 1011.9
20260509123049 61 0 0.0 1.0 0.00 0.00 0.00 88 1011.8
20260509122530 61 0 0.0 1.0 0.00 0.00 0.00 88 1011.8
20260509122032 61 0 0.0 0.0 0.00 0.00 0.00 88 1011.8
20260509121544 61 0 0.0 0.0 0.00 0.00 0.00 88 1011.8
20260509121030 61 0 0.0 0.0 0.00 0.00 0.00 88 1011.8
20260509120531 61 0 0.0 0.0 0.00 0.00 0.00 89 1011.8
20260509120043 60 0 0.0 0.0 0.00 0.00 0.00 88 1011.8
20260509115533 60 0 0.0 1.0 0.00 0.00 0.00 88 1012.0
20260509115032 60 0 0.0 1.0 0.00 0.00 0.00 88 1011.9
20260509114543 60 0 0.0 1.0 0.00 0.00 0.00 88 1012.0
20260509114029 60 0 0.0 2.0 0.00 0.00 0.00 89 1012.0
20260509113529 60 0 0.0 3.0 0.00 0.00 0.00 89 1012.0
20260509113052 60 0 0.0 3.0 0.00 0.00 0.00 89 1012.1
20260509112531 60 178 1.0 3.0 0.00 0.00 0.00 89 1012.1
20260509112028 60 178 0.0 3.0 0.00 0.00 0.00 89 1012.1
20260509111547 60 178 1.0 3.0 0.00 0.00 0.00 89 1012.1
20260509111031 60 0 0.0 3.0 0.00 0.00 0.00 89 1011.9
20260509110529 60 206 0.0 3.0 0.00 0.00 0.00 89 1012.0
20260509110047 60 206 0.0 2.0 0.00 0.00 0.00 89 1012.0
20260509105532 59 0 0.0 2.0 0.00 0.00 0.00 89 1011.9
20260509105030 59 0 0.0 2.0 0.00 0.00 0.00 89 1011.8
20260509104541 59 0 0.0 0.0 0.00 0.00 0.00 89 1011.8
20260509104028 59 0 0.0 5.0 0.00 0.00 0.00 89 1011.6
20260509103528 59 0 1.0 5.0 0.00 0.00 0.00 89 1011.4
20260509103052 59 194 0.0 3.0 0.00 0.00 0.00 89 1011.7
20260509102531 59 0 0.0 2.0 0.00 0.00 0.00 88 1011.6
20260509102032 59 0 0.0 2.0 0.00 0.00 0.00 89 1011.8
20260509101540 59 0 0.0 2.0 0.00 0.00 0.00 89 1011.6
20260509101028 59 0 0.0 2.0 0.00 0.00 0.00 89 1011.8
20260509100532 59 0 0.0 2.0 0.00 0.00 0.00 89 1011.8
20260509100108 59 0 0.0 2.0 0.00 0.00 0.00 89 1011.8
20260509095531 59 0 0.0 0.0 0.00 0.00 0.00 89 1012.1
20260509095030 59 0 0.0 0.0 0.00 0.00 0.00 89 1012.1
20260509094551 59 0 0.0 0.0 0.00 0.00 0.00 88 1012.2
20260509094030 58 0 0.0 0.0 0.00 0.00 0.00 89 1012.3
20260509093532 58 0 0.0 0.0 0.00 0.00 0.00 89 1012.2
20260509093044 58 0 0.0 0.0 0.00 0.00 0.00 88 1012.3
20260509092528 58 0 0.0 0.0 0.00 0.00 0.00 88 1012.0
20260509092031 58 0 0.0 0.0 0.00 0.00 0.00 88 1012.1
20260509091544 58 0 0.0 0.0 0.00 0.00 0.00 88 1012.0
20260509091029 58 0 0.0 0.0 0.00 0.00 0.00 88 1012.1
20260509090529 58 0 0.0 0.0 0.00 0.00 0.00 88 1011.9
20260509090043 58 0 0.0 0.0 0.00 0.00 0.00 88 1011.9
20260509085528 58 0 0.0 0.0 0.00 0.00 0.00 88 1012.1
20260509085031 58 0 0.0 0.0 0.00 0.00 0.00 88 1012.1
20260509084538 58 0 0.0 0.0 0.00 0.00 0.00 88 1012.0
20260509084028 58 0 0.0 0.0 0.00 0.00 0.00 88 1012.0
20260509083531 58 0 0.0 0.0 0.00 0.00 0.00 88 1011.9
20260509083046 58 0 0.0 0.0 0.00 0.00 0.00 88 1011.9
20260509082530 58 0 0.0 0.0 0.00 0.00 0.00 88 1011.9
20260509082029 58 0 0.0 0.0 0.00 0.00 0.00 88 1011.9
20260509081546 58 0 0.0 0.0 0.00 0.00 0.00 88 1012.0
20260509081031 58 0 0.0 0.0 0.00 0.00 0.00 88 1012.0
20260509080534 58 0 0.0 0.0 0.00 0.00 0.00 88 1012.0
20260509080048 58 0 0.0 0.0 0.00 0.00 0.00 88 1012.0
20260509075528 58 0 0.0 0.0 0.00 0.00 0.00 87 1011.8
20260509075028 58 0 0.0 0.0 0.00 0.00 0.00 87 1011.8
20260509074542 58 0 0.0 0.0 0.00 0.00 0.00 87 1011.8
20260509074032 58 0 0.0 0.0 0.00 0.00 0.00 88 1011.9
20260509073528 58 0 0.0 0.0 0.00 0.00 0.00 88 1011.9
20260509073045 58 0 0.0 0.0 0.00 0.00 0.00 88 1011.8
20260509072528 58 0 0.0 0.0 0.00 0.00 0.00 88 1011.9
20260509072031 57 0 0.0 0.0 0.00 0.00 0.00 88 1011.8
20260509071545 57 0 0.0 0.0 0.00 0.00 0.00 88 1011.8
20260509071028 57 0 0.0 0.0 0.00 0.00 0.00 87 1011.8
20260509070528 57 0 0.0 0.0 0.00 0.00 0.00 87 1011.6
20260509070041 57 0 0.0 0.0 0.00 0.00 0.00 87 1011.7
20260509065532 57 0 0.0 0.0 0.00 0.00 0.00 87 1011.7
20260509065030 57 0 0.0 0.0 0.00 0.00 0.00 86 1011.8
20260509064540 57 0 0.0 0.0 0.00 0.00 0.00 86 1012.0
20260509064032 57 0 0.0 0.0 0.00 0.00 0.00 86 1012.0
20260509063530 57 0 0.0 0.0 0.00 0.00 0.00 86 1012.1
20260509063042 57 0 0.0 0.0 0.00 0.00 0.00 86 1012.2
20260509062528 58 0 0.0 0.0 0.00 0.00 0.00 86 1012.3
20260509062028 58 0 0.0 0.0 0.00 0.00 0.00 86 1012.4
20260509061547 58 0 0.0 0.0 0.00 0.00 0.00 86 1012.5
20260509061033 58 0 0.0 0.0 0.00 0.00 0.00 86 1012.8
20260509060532 58 0 0.0 0.0 0.00 0.00 0.00 86 1013.0
20260509060043 58 0 0.0 0.0 0.00 0.00 0.00 86 1013.0
20260509055535 58 0 0.0 0.0 0.00 0.00 0.00 86 1013.1
20260509055030 58 0 0.0 0.0 0.00 0.00 0.00 86 1013.1
20260509054550 57 0 0.0 0.0 0.00 0.00 0.00 86 1013.2
20260509054028 57 0 0.0 0.0 0.00 0.00 0.00 86 1013.2
20260509053531 57 0 0.0 0.0 0.00 0.00 0.00 85 1013.3
20260509053055 57 0 0.0 0.0 0.00 0.00 0.00 85 1013.2
20260509052531 57 0 0.0 0.0 0.00 0.00 0.00 85 1013.2
20260509052028 57 0 0.0 0.0 0.00 0.00 0.00 84 1013.1
20260509051545 57 0 0.0 0.0 0.00 0.00 0.00 84 1013.1
20260509051034 57 0 0.0 0.0 0.00 0.00 0.00 84 1013.1
20260509050530 57 0 0.0 0.0 0.00 0.00 0.00 84 1013.0
20260509050041 57 0 0.0 0.0 0.00 0.00 0.00 84 1013.1
20260509045532 58 0 0.0 0.0 0.00 0.00 0.00 84 1013.1
20260509045032 58 0 0.0 0.0 0.00 0.00 0.00 83 1013.1
20260509044548 58 0 0.0 0.0 0.00 0.00 0.00 83 1013.0
20260509044027 58 0 0.0 0.0 0.00 0.00 0.00 83 1013.1
20260509043527 58 0 0.0 0.0 0.00 0.00 0.00 83 1013.0
20260509043042 58 0 0.0 0.0 0.00 0.00 0.00 83 1013.2
20260509042531 58 0 0.0 0.0 0.00 0.00 0.00 82 1013.3
20260509042031 58 0 0.0 0.0 0.00 0.00 0.00 82 1013.3
20260509041540 58 0 0.0 0.0 0.00 0.00 0.00 81 1013.3
20260509041032 58 0 0.0 0.0 0.00 0.00 0.00 81 1013.3
20260509040532 58 0 0.0 0.0 0.00 0.00 0.00 81 1013.2
20260509040044 59 0 0.0 0.0 0.00 0.00 0.00 80 1013.5
20260509035530 59 0 0.0 0.0 0.00 0.00 0.00 80 1013.6
20260509035031 59 0 0.0 0.0 0.00 0.00 0.00 80 1013.6
20260509034539 59 0 0.0 0.0 0.00 0.00 0.00 79 1013.6
20260509034030 59 0 0.0 0.0 0.00 0.00 0.00 79 1013.5
20260509033531 59 0 0.0 0.0 0.00 0.00 0.00 79 1013.9
20260509033035 60 0 0.0 0.0 0.00 0.00 0.00 78 1013.7
20260509032533 60 0 0.0 0.0 0.00 0.00 0.00 78 1013.8
20260509032031 60 0 0.0 0.0 0.00 0.00 0.00 77 1013.9
20260509031543 60 0 0.0 0.0 0.00 0.00 0.00 77 1013.9
20260509031028 60 0 0.0 0.0 0.00 0.00 0.00 76 1013.9
20260509030531 61 0 0.0 0.0 0.00 0.00 0.00 76 1013.9
20260509030040 61 0 0.0 0.0 0.00 0.00 0.00 75 1014.0
20260509025527 62 0 0.0 0.0 0.00 0.00 0.00 74 1014.2
20260509025028 62 0 0.0 0.0 0.00 0.00 0.00 73 1014.0
20260509024538 62 0 0.0 1.0 0.00 0.00 0.00 73 1014.1
20260509024030 62 0 0.0 1.0 0.00 0.00 0.00 72 1014.0
20260509023530 62 199 0.0 1.0 0.00 0.00 0.00 72 1014.1
20260509023039 63 0 0.0 3.0 0.00 0.00 0.00 72 1014.4
20260509022530 63 0 0.0 3.0 0.00 0.00 0.00 71 1014.1
20260509022030 63 200 0.0 4.0 0.00 0.00 0.00 71 1014.3
20260509021544 63 0 0.0 5.0 0.00 0.00 0.00 71 1014.1
20260509021030 63 207 2.0 5.0 0.00 0.00 0.00 71 1014.3
20260509020533 63 190 1.0 4.0 0.00 0.00 0.00 70 1014.3
20260509020042 63 188 0.0 4.0 0.00 0.00 0.00 70 1014.1
20260509015533 63 0 1.0 3.0 0.00 0.00 0.00 70 1013.9
20260509015033 63 217 1.0 4.0 0.00 0.00 0.00 69 1014.1
20260509014542 64 221 1.0 5.0 0.00 0.00 0.00 69 1014.1
20260509014035 64 218 2.0 6.0 0.00 0.00 0.00 69 1013.9
20260509013530 64 202 2.0 6.0 0.00 0.00 0.00 69 1014.0
20260509013041 64 197 1.0 3.0 0.00 0.00 0.00 69 1013.9
20260509012532 64 197 1.0 3.0 0.00 0.00 0.00 69 1014.0
20260509012030 64 0 0.0 4.0 0.00 0.00 0.00 68 1013.9
20260509011538 64 0 1.0 4.0 0.00 0.00 0.00 68 1013.7
20260509011031 64 203 0.0 4.0 0.00 0.00 0.00 67 1013.7
20260509010530 64 198 0.0 2.0 0.00 0.00 0.00 67 1013.8
20260509010046 65 0 0.0 2.0 0.00 0.00 0.00 67 1013.8
20260509005531 65 0 0.0 2.0 0.00 0.00 0.00 67 1013.8
20260509005030 65 201 0.0 2.0 0.00 0.00 0.00 66 1013.7
20260509004541 65 0 0.0 2.0 0.00 0.00 0.00 66 1013.7
20260509004028 65 0 0.0 3.0 0.00 0.00 0.00 66 1013.8
20260509003532 65 201 0.0 4.0 0.00 0.00 0.00 65 1013.8
20260509003041 65 201 1.0 4.0 0.00 0.00 0.00 65 1013.8
20260509002530 66 200 2.0 4.0 0.00 0.00 0.00 64 1013.9
20260509002031 66 200 2.0 4.0 0.00 0.00 0.00 64 1013.9
20260509001540 66 207 1.0 3.0 0.00 0.00 0.00 64 1013.8
20260509001030 66 0 1.0 3.0 0.00 0.00 0.00 64 1013.8
20260509000530 66 206 1.0 3.0 0.00 0.00 0.00 64 1013.8
20260509000037 66 207 0.0 4.0 0.00 0.00 0.00 63 1013.9
20260508235531 66 207 1.0 4.0 0.00 0.02 0.00 63 1013.9
20260508235032 67 0 1.0 4.0 0.00 0.02 0.00 63 1013.9
20260508234546 67 0 0.0 4.0 0.00 0.02 0.00 62 1013.7
20260508234028 67 207 2.0 4.0 0.00 0.02 0.00 61 1013.8
20260508233534 67 208 1.0 3.0 0.00 0.02 0.00 61 1013.8
20260508233040 67 207 1.0 5.0 0.00 0.02 0.00 61 1013.7
20260508232530 67 207 2.0 5.0 0.00 0.02 0.00 61 1013.6
20260508232027 67 201 0.0 3.0 0.00 0.02 0.00 61 1013.5
20260508231555 67 219 0.0 5.0 0.00 0.02 0.00 61 1013.5
20260508231032 68 219 1.0 5.0 0.00 0.02 0.00 60 1013.5
20260508230528 68 0 2.0 5.0 0.00 0.02 0.00 60 1013.4
20260508230054 68 225 1.0 3.0 0.00 0.02 0.00 60 1013.4
20260508225535 68 136 1.0 3.0 0.00 0.05 0.00 59 1013.3
20260508225029 68 132 0.0 3.0 0.00 0.05 0.00 59 1013.3